{"data":{"norad_id":55948,"intl_designator":"2023-037AL","name":"STARLINK-5900","alt_names":[],"object_type":"PAYLOAD","status":"ACTIVE","operator":null,"country":"US","launch_date":"2023-03-17","launch_site_code":"AFWTR","launch_vehicle":null,"mission":null,"orbit_class":"UNKNOWN","rcs_meters":null,"size_class":null,"mass_kg":null,"dimensions":null,"purposes":["comms"],"wikipedia_slug":null,"has_3d_model":false,"image_url":null,"decayed_at":null,"tle_current":{"epoch":"2026-05-25T03:38:26.713248Z","epoch_age_seconds":62049,"freshness":"FRESH","line1":"1 55948U 23037AL  26145.15169807  .00000745  00000+0  70198-4 0  9995","line2":"2 55948  70.0001  71.7827 0002885 269.1456  90.9372 14.98331073175922","mean_motion":14.98331073,"eccentricity":0.0002885,"inclination_deg":70.0001,"raan_deg":71.7827,"arg_perigee_deg":269.1456,"mean_anomaly_deg":90.9372,"bstar":7.0198e-5,"rev_number":17592,"period_min":96.106930300577,"perigee_km":570.04744309066,"apogee_km":574.05770247416,"semimajor_km":6950.1895727824,"source":"CELESTRAK","updated_at":"2026-05-25T13:38:17.917682Z"}}}